Location: Newark
(45.5667°N, 9.1667°E)
Time: 07:20:39
(UTC+00:00)

Envisat - Visible Passes

Search period start: 20 November 2019 00:00
Search period end: 30 November 2019 00:00
Orbit: 764 x 766 km, 98.1° (Epoch: 19 November)

Date Brightness Start Highest point End Pass type
(mag) Time Alt. Az. Time Alt. Az. Time Alt. Az.
20 Nov 5.4 05:24:38 10° NE 05:28:53 26° E 05:33:06 10° SSE visible
20 Nov 3.3 16:41:10 10° SE 16:45:55 43° ENE 16:50:43 10° N visible
20 Nov 5.1 18:20:54 10° SSW 18:25:06 26° W 18:29:20 10° NW visible
21 Nov 6.2 04:49:41 10° ENE 04:51:41 12° E 04:53:41 10° ESE visible
21 Nov 3.7 17:43:09 10° S 17:48:07 54° W 17:53:07 10° NNW visible
22 Nov 4.4 05:49:41 10° NNE 05:54:33 44° E 05:59:23 10° S visible
22 Nov 2.9 17:06:17 10° SSE 17:11:19 72° ENE 17:16:24 10° N visible
22 Nov 5.9 18:47:57 10° SW 18:50:53 15° W 18:53:49 10° NW visible
23 Nov 5.8 05:13:40 10° NE 05:17:31 21° E 05:21:18 10° SE visible
23 Nov 3.6 16:30:09 10° SE 16:34:43 35° ENE 16:39:18 10° N visible
23 Nov 4.8 18:09:13 10° SSW 18:13:45 32° W 18:18:17 10° NNW visible
24 Nov 3.3 17:31:45 10° S 17:36:48 68° WSW 17:41:54 10° NNW visible
25 Nov 4.9 05:38:33 10° NNE 05:43:13 35° E 05:47:51 10° SSE visible
25 Nov 3.0 16:55:07 10° SSE 17:00:04 58° ENE 17:05:04 10° N visible
25 Nov 5.6 18:35:54 10° SW 18:39:29 19° W 18:43:05 10° NW visible
26 Nov 6.0 05:02:51 10° NE 05:06:07 17° E 05:09:21 10° SE visible
26 Nov 3.8 16:19:14 10° ESE 16:23:33 29° ENE 16:27:51 10° N visible
26 Nov 4.3 17:57:39 10° SSW 18:02:24 40° W 18:07:11 10° NNW visible
27 Nov 3.0 17:20:27 10° SSE 17:25:31 85° WSW 17:30:39 10° NNW visible
27 Nov 6.2 19:04:04 10° W 19:05:19 11° W 19:06:34 10° WNW visible
28 Nov 5.3 05:27:29 10° NE 05:31:52 28° E 05:36:13 10° SSE visible
28 Nov 3.2 16:44:01 10° SE 16:48:51 46° ENE 16:53:42 10° N visible
28 Nov 5.3 18:24:02 10° SW 18:28:05 24° W 18:32:10 10° NW visible
29 Nov 6.1 04:52:14 10° ENE 04:54:41 13° E 04:57:07 10° ESE visible
29 Nov 3.9 17:46:10 10° S 17:51:04 50° W 17:56:01 10° NNW visible
